Location: Dal�� Lhota
(48.7500°N, 14.0167°E)
Time: 02:10:51
(UTC+00:00)

ISS - Pass Details

Date: 02 July 2021
Orbit: 419 x 421 km, 51.6° (Epoch: 02 August)

Event Time Altitude Azimuth Distance (km) Brightness Sun altitude
Exits shadow 01:33:40 18° 209° (SSW) 1,095 -2.3 -11.2°
Maximum altitude 01:35:44 39° 148° (SSE) 644 -3.0 -11.0°
Drops below altitude 10° 01:38:55 10° 78° (ENE) 1,503 -0.2 -10.7°
Sets 01:41:05 0° 70° (ENE) 2,370 1.1 -10.5°
